Flag for U.S.A. Weather past 2 weeks in Sitka, Alaska, U.S.A.

Now
51 °F

Overcast.


Feels Like: 48 °F
Forecast: 49 / 57 °F
Wind: 8 mph from Northwest

Location: Sitka Airport

Current Time: May 23, 2015 at 9:52:13 PM

Latest Report: May 23, 2015 at 8:53 PM


Visibility: 10 mi

Pressure: 30.22 "Hg

Humidity: 86%

Dew point: 47 °F

Location of SitkaLocation

Historic Weather in Sitka — Graph

°F

Sitka temperature yesterday

Maximum temperature yesterday: 60 °F (at 2:53 PM)
Minimum temperature yesterday: 50 °F (at 12:53 AM)
Average temperature yesterday: 53 °F

Past Weeks' High & Low Weather Summary

 TemperatureHumidityPressure
High60 °F (May 18, 4:53 PM)93% (May 10, 4:53 AM)30.22 "Hg (May 10, 4:53 AM)
Low43 °F (May 10, 4:53 AM)58% (May 8, 8:53 PM)29.81 "Hg (May 12, 5:53 PM)
Average51 °F78%30.07 "Hg
* Reported May 8 7:53 PM — May 23 7:53 PM, Sitka, Weather by CustomWeather, © 2015

Note: Actual official high and low records may vary slightly from our data, if they occured in-between our weather recording intervals... More about our weather records

Advertising

Sitka weather history for previous 24 hours

 ConditionsComfort  
Time TempWeatherWind HumidityBarometerVisibility
7:53 PM
Sat, May 23
51 °FOvercast.8 mph83%30.22 "Hg10 mi
6:53 PM52 °FMore clouds than sun.8 mph80%30.22 "Hg10 mi
6:00 PM52 °FOvercast.6 mph83%30.21 "Hg10 mi
4:53 PM52 °FOvercast.8 mph80%30.21 "Hg10 mi
3:53 PM53 °FOvercast.3 mph80%30.21 "Hg10 mi
2:53 PM52 °FOvercast.7 mph83%30.21 "Hg10 mi
2:00 PM52 °FPartly sunny.5 mph83%30.20 "Hg10 mi
12:53 PM51 °FOvercast.5 mph83%30.19 "Hg10 mi
11:53 AM52 °FOvercast.8 mph83%30.18 "Hg10 mi
10:53 AM52 °FOvercast.7 mph83%30.17 "Hg10 mi
9:53 AM51 °FOvercast.8 mph83%30.15 "Hg10 mi
8:53 AM51 °FOvercast.8 mph83%30.14 "Hg10 mi
7:53 AM50 °FOvercast.8 mph86%30.12 "Hg10 mi
6:53 AM50 °FOvercast.6 mph86%30.12 "Hg10 mi
5:53 AM50 °FLow clouds.6 mph86%30.11 "Hg10 mi
4:53 AM50 °FLow clouds.7 mph86%30.11 "Hg10 mi
3:53 AM50 °FLow clouds.9 mph86%30.12 "Hg10 mi
2:53 AM50 °FLow clouds.13 mph86%30.11 "Hg10 mi
2:02 AM50 °FPassing clouds.10 mph86%30.11 "Hg10 mi
1:53 AM49 °FPassing clouds.7 mph90%30.11 "Hg10 mi
12:53 AM50 °FClear.12 mph86%30.11 "Hg10 mi
11:53 PM
Fri, May 22
51 °FClear.9 mph86%30.09 "Hg10 mi
10:53 PM50 °FPassing clouds.10 mph86%30.09 "Hg10 mi
9:53 PM52 °FSunny.8 mph83%30.09 "Hg10 mi
Weather by CustomWeather, © 2015

See weather overviewHow to use our weather pages